Regional Weather Roundup
Issued by NWS Kansas City/Pleasant Hill, MO

Home | Current Version | Previous Version | Graphics & Text | Print | Product List | Glossary Off
Versions: 1 2 3 4 5 6 7 8 9 10 11 12 13 14 15 16 17 18 19 20 21 22 23 24 25 26 27 28 29 30 31 32 33 34 35 36 37 38 39 40 41 42 43 44 45 46 47 48 49 50

043
ASUS43 KEAX 092110
RWREAX

WEATHER ROUNDUP FOR EASTERN KANSAS AND NORTHWEST MISSOURI
NATIONAL WEATHER SERVICE KANSAS CITY/PLEASANT HILL MO
300 PM CST TUE FEB 09 2016

KSZ040-057-103>105-MOZ028-029-037-043-092200-
...KANSAS CITY METROPOLITAN AREA...

CITY           SKY/WX    TMP DP  RH WIND       PRES   REMARKS
K.C. INTL      MOSUNNY   28   8  43 NW20G28   30.18R WCI  15
K.C. DOWNTOWN  SUNNY     30   8  39 NW20G29   30.19S WCI  17
LEES SUMMIT    SUNNY     28   9  44 NW21G33   30.18R WCI  15
OLATHE - IXD   SUNNY     29   5  36 NW22G35   30.20R WCI  15
OLATHE - OJC   SUNNY     28   3  34 N20G30    30.19R WCI  15
LAWRENCE       SUNNY     31   5  33 NW23G32   30.22R WCI  18

$$

MOZ001>008-011>017-020>025-030>033-038>040-044>046-053-054-092200-
...NORTHERN AND CENTRAL MISSOURI...

CITY           SKY/WX    TMP DP  RH WIND       PRES   REMARKS
ST. JOSEPH     SUNNY     28   5  37 NW23G30   30.21F WCI  14
MOSBY          CLEAR     28  10  47 NW18G28   30.19S WCI  16
WARRENSBURG    MOSUNNY   30  10  43 NW14G24   30.17S WCI  20
WHITEMAN AFB   MOSUNNY   29  10  45 NW18G26   30.14R WCI  16
CLINTON          N/A     32  14  47 NW17      30.17R WCI  21
SEDALIA        PTSUNNY   29  13  51 NW20G26   30.15R WCI  16
WARSAW         NOT AVBL
CHILLICOTHE      N/A     27  11  51 NW12G24   30.15F WCI  17
KIRKSVILLE     FLURRIES  25   8  48 NW15G26   30.07S WCI  13

$$

MOZ041-047>049-056>058-063>065-088>090-097-092200-
...EASTERN AND SOUTHERN MISSOURI...

CITY           SKY/WX    TMP DP  RH WIND       PRES   REMARKS
ST. LOUIS INTL FLURRIES  25  12  58 NW14G25   30.03R WCI  13
SPIRIT OF STL  CLOUDY    26  13  57 NW16G25   30.04S WCI  14
COLUMBIA       PTSUNNY   26   9  48 NW23G30   30.08S WCI  11
JEFFERSON CITY PTSUNNY   27   9  46 NW21G32   30.11S WCI  13
ROLLA          CLOUDY    24  11  57 NW16G26   30.05R WCI  11
OSAGE BEACH    PTSUNNY   28   9  43 NW14G22   30.11R WCI  17
SPRINGFIELD    SUNNY     33   9  36 NW22G28   30.11S WCI  21
BRANSON        SUNNY     32   7  34 NW14G25   30.11R WCI  22
JOPLIN         SUNNY     37   6  27 NW21G28   30.18S WCI  26
WEST PLAINS    MOSUNNY   32   7  35 NW20G26   30.05S WCI  20

$$

IAZ060-094-KSZ022-034>040-054-083-096-NEZ052-066-093-092200-
...KANSAS...SOUTHEAST NEBRASKA AND IOWA...

CITY           SKY/WX    TMP DP  RH WIND       PRES   REMARKS
TOPEKA         SUNNY     31   2  29 NW18G32   30.25R WCI  19
MANHATTAN      CLOUDY    31   7  36 N10G28    30.29R WCI  22
EMPORIA        CLOUDY    34   7  32 N23G32    30.24R WCI  22
CHANUTE        CLOUDY    38   6  26 N17G28    30.21S WCI  28
WICHITA        PTSUNNY   42  16  34 NW23G31   30.26S WCI  33
OMAHA          MOSUNNY   23   8  52 NW18      30.24S WCI   9
LINCOLN        CLOUDY    27  10  49 N10       30.27F WCI  17
FALLS CITY     SUNNY     26   4  38 NW16G28   30.24S WCI  14
LAMONI         SUNNY     21   6  52 NW21      30.12S WCI   5
DES MOINES     MOSUNNY   18   4  54 NW21G29   30.13R WCI   1

$$





USA.gov is the U.S. government's official web portal to all federal, state and local government web resources and services.